Location: ?????????
(54.7630°N, 39.4991°E)
Time: 08:33:06
(UTC+00:00)

PAYLOAD B - Pass Details

Date: 14 April 2026
Orbit: 848 x 870 km, 99.0° (Epoch: 9 May)

Event Time Altitude Azimuth Distance (km) Brightness Sun altitude
Rises 17:22:48 0° 165° (SSE) 3,405 6.9 -8.6°
Reaches altitude 10° 17:25:10 10° 167° (SSE) 2,472 6.2 -8.9°
Maximum altitude 17:30:39 78° 254° (WSW) 873 4.4 -9.6°
Drops below altitude 10° 17:36:11 10° 341° (NNW) 2,487 7.5 -10.2°
Sets 17:38:34 0° 343° (NNW) 3,427 8.2 -10.5°
